TimeEST,TemperatureF,Dew PointF,Humidity,Sea Level PressureIn,VisibilityMPH,Wind Direction,Wind SpeedMPH,Gust SpeedMPH,PrecipitationIn,Events,Conditions,WindDirDegrees,DateUTC
12:15 AM,26.6,21.2,80,30.34,10.0,Calm,Calm,-,N/A,,Clear,0,2012-11-15 05:15:00
12:35 AM,28.4,21.2,74,30.33,10.0,Calm,Calm,-,N/A,,Clear,0,2012-11-15 05:35:00
12:55 AM,26.6,21.2,80,30.33,10.0,NNE,4.6,-,N/A,,Clear,20,2012-11-15 05:55:00
1:15 AM,26.6,21.2,80,30.32,10.0,Calm,Calm,-,N/A,,Clear,0,2012-11-15 06:15:00
1:35 AM,26.6,21.2,80,30.31,10.0,Calm,Calm,-,N/A,,Clear,0,2012-11-15 06:35:00
1:55 AM,26.6,21.2,80,30.30,10.0,NNE,5.8,-,N/A,,Clear,20,2012-11-15 06:55:00
2:15 AM,26.6,21.2,80,30.30,10.0,NNE,5.8,-,N/A,,Clear,20,2012-11-15 07:15:00
2:35 AM,28.4,23.0,80,30.29,10.0,North,5.8,-,N/A,,Clear,10,2012-11-15 07:35:00
2:55 AM,28.4,23.0,80,30.29,10.0,NNE,5.8,-,N/A,,Clear,30,2012-11-15 07:55:00
3:15 AM,26.6,21.2,80,30.30,10.0,Calm,Calm,-,N/A,,Clear,0,2012-11-15 08:15:00
3:35 AM,26.6,21.2,80,30.30,10.0,Calm,Calm,-,N/A,,Clear,0,2012-11-15 08:35:00
3:55 AM,26.6,21.2,80,30.30,10.0,Calm,Calm,-,N/A,,Clear,0,2012-11-15 08:55:00
4:15 AM,24.8,21.2,86,30.30,10.0,Calm,Calm,-,N/A,,Clear,0,2012-11-15 09:15:00
4:35 AM,24.8,21.2,86,30.31,10.0,Calm,Calm,-,N/A,,Clear,0,2012-11-15 09:35:00
4:55 AM,24.8,21.2,86,30.30,10.0,Calm,Calm,-,N/A,,Clear,0,2012-11-15 09:55:00
5:15 AM,23.0,21.2,93,30.30,7.0,North,3.5,-,N/A,,Clear,0,2012-11-15 10:15:00
5:35 AM,23.0,21.2,93,30.30,7.0,NNE,3.5,-,N/A,,Clear,20,2012-11-15 10:35:00
5:55 AM,23.0,19.4,86,30.31,10.0,NNE,4.6,-,N/A,,Clear,20,2012-11-15 10:55:00
6:15 AM,23.0,19.4,86,30.30,7.0,North,3.5,-,N/A,,Clear,10,2012-11-15 11:15:00
6:35 AM,21.2,19.4,93,30.31,7.0,Calm,Calm,-,N/A,,Clear,0,2012-11-15 11:35:00
6:55 AM,21.2,19.4,93,30.32,7.0,Calm,Calm,-,N/A,,Clear,0,2012-11-15 11:55:00
7:15 AM,21.2,19.4,93,30.32,7.0,Calm,Calm,-,N/A,,Clear,0,2012-11-15 12:15:00
7:35 AM,23.0,19.4,86,30.32,7.0,Calm,Calm,-,N/A,,Clear,0,2012-11-15 12:35:00
7:55 AM,23.0,21.2,93,30.32,7.0,Calm,Calm,-,N/A,,Clear,0,2012-11-15 12:55:00
8:15 AM,24.8,21.2,86,30.32,7.0,NNE,3.5,-,N/A,,Clear,30,2012-11-15 13:15:00
8:35 AM,26.6,23.0,86,30.33,7.0,NNE,3.5,-,N/A,,Clear,30,2012-11-15 13:35:00
8:55 AM,26.6,23.0,86,30.33,10.0,NNE,4.6,-,N/A,,Clear,30,2012-11-15 13:55:00
9:15 AM,28.4,23.0,80,30.33,10.0,NNE,4.6,-,N/A,,Clear,30,2012-11-15 14:15:00
9:35 AM,30.2,23.0,75,30.33,10.0,NNE,5.8,-,N/A,,Clear,20,2012-11-15 14:35:00
9:55 AM,32.0,23.0,69,30.33,10.0,NNE,4.6,-,N/A,,Clear,20,2012-11-15 14:55:00
10:15 AM,32.0,23.0,69,30.32,10.0,North,4.6,-,N/A,,Clear,10,2012-11-15 15:15:00
10:35 AM,33.8,24.8,70,30.32,10.0,NNE,3.5,-,N/A,,Clear,30,2012-11-15 15:35:00
10:55 AM,33.8,24.8,70,30.31,10.0,NNE,3.5,-,N/A,,Clear,20,2012-11-15 15:55:00
11:15 AM,33.8,23.0,65,30.31,10.0,Calm,Calm,-,N/A,,Clear,0,2012-11-15 16:15:00
11:35 AM,35.6,23.0,60,30.31,10.0,Calm,Calm,-,N/A,,Clear,0,2012-11-15 16:35:00
11:55 AM,35.6,23.0,60,30.29,10.0,Calm,Calm,-,N/A,,Clear,0,2012-11-15 16:55:00
12:15 PM,37.4,23.0,56,30.29,10.0,Calm,Calm,-,N/A,,Clear,0,2012-11-15 17:15:00
12:35 PM,37.4,24.8,60,30.28,10.0,Calm,Calm,-,N/A,,Clear,0,2012-11-15 17:35:00
12:55 PM,39.2,24.8,56,30.27,10.0,Calm,Calm,-,N/A,,Clear,0,2012-11-15 17:55:00
1:15 PM,39.2,23.0,52,30.26,10.0,Calm,Calm,-,N/A,,Clear,0,2012-11-15 18:15:00
1:35 PM,39.2,23.0,52,30.26,10.0,SW,3.5,-,N/A,,Clear,230,2012-11-15 18:35:00
1:55 PM,41.0,21.2,45,30.26,10.0,Calm,Calm,-,N/A,,Clear,0,2012-11-15 18:55:00
2:15 PM,41.0,21.2,45,30.25,10.0,West,3.5,-,N/A,,Clear,260,2012-11-15 19:15:00
2:35 PM,41.0,21.2,45,30.25,10.0,Calm,Calm,-,N/A,,Clear,0,2012-11-15 19:35:00
2:55 PM,41.0,23.0,49,30.25,10.0,Calm,Calm,-,N/A,,Clear,0,2012-11-15 19:55:00
3:15 PM,41.0,21.2,45,30.24,10.0,Calm,Calm,-,N/A,,Clear,0,2012-11-15 20:15:00
3:35 PM,41.0,21.2,45,30.24,10.0,Calm,Calm,-,N/A,,Clear,0,2012-11-15 20:35:00
3:55 PM,41.0,21.2,45,30.24,10.0,Calm,Calm,-,N/A,,Clear,0,2012-11-15 20:55:00
4:15 PM,41.0,23.0,49,30.23,10.0,Calm,Calm,-,N/A,,Clear,0,2012-11-15 21:15:00
4:35 PM,41.0,23.0,49,30.23,10.0,Calm,Calm,-,N/A,,Clear,0,2012-11-15 21:35:00
4:55 PM,41.0,21.2,45,30.23,10.0,Calm,Calm,-,N/A,,Clear,0,2012-11-15 21:55:00
5:15 PM,39.2,21.2,49,30.23,10.0,Calm,Calm,-,N/A,,Clear,0,2012-11-15 22:15:00
5:35 PM,39.2,21.2,49,30.24,10.0,Calm,Calm,-,N/A,,Clear,0,2012-11-15 22:35:00
5:55 PM,37.4,23.0,56,30.24,10.0,Calm,Calm,-,N/A,,Clear,0,2012-11-15 22:55:00
6:15 PM,35.6,23.0,60,30.25,10.0,Calm,Calm,-,N/A,,Clear,0,2012-11-15 23:15:00
6:35 PM,33.8,23.0,65,30.25,10.0,Calm,Calm,-,N/A,,Clear,0,2012-11-15 23:35:00
6:55 PM,33.8,23.0,65,30.25,10.0,Calm,Calm,-,N/A,,Clear,0,2012-11-15 23:55:00
7:15 PM,33.8,23.0,65,30.25,10.0,Calm,Calm,-,N/A,,Clear,0,2012-11-16 00:15:00
7:35 PM,33.8,23.0,65,30.25,10.0,Calm,Calm,-,N/A,,Clear,0,2012-11-16 00:35:00
7:55 PM,32.0,23.0,69,30.25,10.0,Calm,Calm,-,N/A,,Clear,0,2012-11-16 00:55:00
8:35 PM,32.0,23.0,69,30.26,10.0,Calm,Calm,-,N/A,,Clear,0,2012-11-16 01:35:00
8:55 PM,30.2,23.0,75,30.26,10.0,Calm,Calm,-,N/A,,Clear,0,2012-11-16 01:55:00
9:15 PM,32.0,23.0,69,30.26,10.0,Calm,Calm,-,N/A,,Clear,0,2012-11-16 02:15:00
9:35 PM,30.2,23.0,75,30.26,10.0,Calm,Calm,-,N/A,,Clear,0,2012-11-16 02:35:00
9:55 PM,30.2,21.2,69,30.26,10.0,Calm,Calm,-,N/A,,Clear,0,2012-11-16 02:55:00
10:15 PM,28.4,23.0,80,30.26,10.0,Calm,Calm,-,N/A,,Clear,0,2012-11-16 03:15:00
10:35 PM,28.4,23.0,80,30.26,10.0,Calm,Calm,-,N/A,,Clear,0,2012-11-16 03:35:00
10:55 PM,28.4,23.0,80,30.26,10.0,Calm,Calm,-,N/A,,Clear,0,2012-11-16 03:55:00
11:15 PM,28.4,23.0,80,30.26,10.0,Calm,Calm,-,N/A,,Clear,0,2012-11-16 04:15:00
11:35 PM,26.6,21.2,80,30.27,10.0,Calm,Calm,-,N/A,,Clear,0,2012-11-16 04:35:00
11:55 PM,24.8,21.2,86,30.27,10.0,Calm,Calm,-,N/A,,Clear,0,2012-11-16 04:55:00